NANOSAT 1B

Satellite information

Favourite Embed

Satellite Type and Status

PAYLOADIN ORBIT

Key statistics

Satellite NANOSAT 1B at a glance.

Uptime

5821

Days in orbit

Revolutions

≈ 14.9

Per day

Orbit

SSO

Sun Synchronous Orbit

Inclination

98.1

Latest

Satellite identification and parameters

Extended collection of information and parameters for NANOSAT 1B.

Object identification

Identified? True

Debris? False

Object name: NANOSAT 1B

International designator: 2009-041E

Object number (NORAD): 35685

Object ID (CCSDS): 35685

Country: SPAIN (SPN)

Current information (Y/N): Y

RCS size: MEDIUM

Orbital parameters

Period: 96.558 minutes

Inclination: 98.0952 deg

SMA: 6971.936 km

Apoapsis: 628.83 km

Periapsis: 558.773 km

RAAN: 290.2285 deg

Eccentricy: 0.0050242

Argument of periapsis: 224.2303 deg

Mean anomaly: 135.4893 deg

Mean motion: 14.91326131 rev/day

Mean motion (dot): 0.00001394 rev/day2

B* drag term: 0.00014278 1/REarth

Two-line elements (TLE)

Creation date: July 5, 2025, 5:45 p.m.

Reference frame: TEME

Reference center: EARTH

Epoch: July 5, 2025, 10:03 a.m. UTC

TLE line 0: 0 NANOSAT 1B

TLE line 1: 1 35685U 09041E 25186.41878496 .00001394 00000-0 14278-3 0 9992

TLE line 2: 2 35685 98.0952 290.2285 0050242 224.2303 135.4893 14.91326131862706

Live tracking on map

Real-time ground track for satellite NANOSAT 1B.

In-orbit conjunctions

There are no conjunctions computed for NANOSAT 1B, at the moment. Check back to stay up to date, as we update our databases every day.

Go to all conjunctions

Associated space launch

Emirati Earth observation satellite. Launched with 5 secondary payloads.

NANOSAT 1B was lifted into orbit during the mission ‘Dnepr | DubaiSat 1’, on board a Dnepr space rocket.

The launch took place on July 29, 2009, 6:46 p.m. from 109/95.

For more information about the launch, click the button.

Launch to space Dnepr | DubaiSat 1
Dnepr | DubaiSat 1

Agency: N/A

Status: Launch Successful

Launch date: July 29, 2009, 6:46 p.m. UTC

Rocket: Dnepr

Launch pad: 109/95

Location: Baikonur Cosmodrome, Republic of Kazakhstan

...

Latest news about this satellite

There are no fresh news available about this satellite. Check back as we update our databases every day.


Newsletter sign-up

Weekly statistics, charts and insights to help you stay on top of the space industry.